METEOR 1-21

Satellite information

Favourite Embed

Satellite Type and Status

PAYLOADIN ORBIT

Key statistics

Satellite METEOR 1-21 at a glance.

Uptime

18300

Days in orbit

Revolutions

≈ 14.1

Per day

Orbit

LEO

Low Earth Orbit

Inclination

81.2

Latest

Satellite identification and parameters

Extended collection of information and parameters for METEOR 1-21.

Object identification

Identified? True

Debris? False

Object name: METEOR 1-21

International designator: 1975-023A

Object number (NORAD): 7714

Object ID (CCSDS): 7714

Country: COMMONWEALTH OF INDEPENDENT STATES (CIS)

Current information (Y/N): Y

RCS size: LARGE

Orbital parameters

Period: 102.242 minutes

Inclination: 81.199 deg

SMA: 7242.933 km

Apoapsis: 885.562 km

Periapsis: 844.034 km

RAAN: 265.1776 deg

Eccentricy: 0.0028668

Argument of periapsis: 59.3572 deg

Mean anomaly: 301.0419 deg

Mean motion: 14.0841635 rev/day

Mean motion (dot): 0.00000098 rev/day2

B* drag term: 0.00004975 1/REarth

Two-line elements (TLE)

Creation date: May 8, 2025, 3:01 a.m.

Reference frame: TEME

Reference center: EARTH

Epoch: May 7, 2025, 7:40 p.m. UTC

TLE line 0: 0 METEOR 1-21

TLE line 1: 1 07714U 75023A 25127.82006581 .00000098 00000-0 49750-4 0 9999

TLE line 2: 2 07714 81.1990 265.1776 0028668 59.3572 301.0419 14.08416350890472

Live tracking on map

Real-time ground track for satellite METEOR 1-21.

In-orbit conjunctions

A list of the most updated potential collisions computed for object METEOR 1-21.

Target Orbit TCA Probability of collision Miss distance Type
CZ-6A DEB SSO 2025-04-15 00:01:01 0.133604 10.0 (m) DEBRIS
FENGYUN 1C DEB SSO 2024-11-09 16:53:34 0.0002433357 631.0 (m) DEBRIS
FENGYUN 1C DEB SSO 2024-09-14 01:03:25 0.0002302301 286.0 (m) DEBRIS

Associated space launch

The Meteor-1 series was the first series of Soviet meteorological satellites.

METEOR 1-21 was lifted into orbit during the mission ‘Vostok 8A92M | Meteor-1 21 (31L)’, on board a Vostok 8A92M space rocket.

The launch took place on April 1, 1975, 12:30 p.m. from 41/1.

For more information about the launch, click the button.

Launch to space Vostok 8A92M | Meteor-1 21 (31L)
Vostok 8A92M | Meteor-1 21 (31L)

Agency: N/A

Status: Launch Successful

Launch date: April 1, 1975, 12:30 p.m. UTC

Rocket: Vostok 8A92M

Launch pad: 41/1

Location: Plesetsk Cosmodrome, Russian Federation

...

Latest news about this satellite

There are no fresh news available about this satellite. Check back as we update our databases every day.


Newsletter sign-up

Weekly statistics, charts and insights to help you stay on top of the space industry.